Location: Unspecified
(49.9820°N, 20.4363°E)
Time: 22:40:05
(UTC+02:00)

Explorer 7 - All Passes

Search period start: 15 May 2026 00:00
Search period end: 25 May 2026 00:00
Orbit: 427 x 536 km, 50.2° (Epoch: 15 May)

Date Brightness Start Highest point End Pass type
(mag) Time Alt. Az. Time Alt. Az. Time Alt. Az.
15 May - 05:15:52 10° S 05:18:15 17° SE 05:20:41 10° E daylight
15 May - 06:52:25 10° WSW 06:55:59 59° SSE 06:59:43 10° E daylight
15 May - 08:30:32 10° W 08:34:16 84° N 08:38:09 10° E daylight
15 May - 10:08:47 10° W 10:12:34 64° SSW 10:16:30 10° ESE daylight
15 May - 11:47:30 10° W 11:50:27 21° SW 11:53:28 10° SSE daylight
16 May - 04:48:22 10° S 04:50:34 16° SE 04:52:50 10° E daylight
16 May - 06:24:44 10° WSW 06:28:16 56° SSE 06:31:58 10° E daylight
16 May - 08:02:49 10° W 08:06:32 84° N 08:10:24 10° E daylight
16 May - 09:41:05 10° W 09:44:51 66° SSW 09:48:45 10° ESE daylight
16 May - 11:19:44 10° W 11:22:45 22° SW 11:25:50 10° SSE daylight
17 May - 04:20:52 10° S 04:22:53 15° SE 04:24:57 10° ESE daylight
17 May - 05:57:03 10° SW 06:00:33 53° SSE 06:04:12 10° E daylight
17 May - 07:35:06 10° W 07:38:47 85° N 07:42:37 10° E daylight
17 May - 09:13:22 10° W 09:17:07 68° SSW 09:21:00 10° ESE daylight
17 May - 10:51:58 10° W 10:55:03 23° SW 10:58:11 10° SSE daylight
18 May - 03:53:24 10° S 03:55:12 13° SE 03:57:01 10° ESE visible
18 May - 05:29:22 10° SW 05:32:50 50° SSE 05:36:26 10° E daylight
18 May - 07:07:24 10° W 07:11:02 85° N 07:14:51 10° E daylight
18 May - 08:45:39 10° W 08:49:22 71° SSW 08:53:14 10° ESE daylight
18 May - 10:24:11 10° W 10:27:19 24° SW 10:30:32 10° SSE daylight
19 May - 03:25:59 10° SSE 03:27:30 12° SE 03:29:03 10° ESE visible
19 May - 05:01:41 10° SW 05:05:06 48° SSE 05:08:39 10° E daylight
19 May - 06:39:39 10° W 06:43:17 86° N 06:47:05 10° E daylight
19 May - 08:17:55 10° W 08:21:37 73° SSW 08:25:28 10° ESE daylight
19 May - 09:56:25 10° W 09:59:36 25° SW 10:02:51 10° SSE daylight
20 May - 02:58:37 10° SSE 02:59:48 11° SE 03:01:01 10° ESE visible
20 May - 04:33:59 10° SW 04:37:21 45° SSE 04:40:52 10° E daylight
20 May - 06:11:55 10° W 06:15:32 86° N 06:19:17 10° E daylight
20 May - 07:50:11 10° W 07:53:52 75° SSW 07:57:41 10° ESE daylight
20 May - 09:28:39 10° W 09:31:51 27° SSW 09:35:09 10° SSE daylight
21 May - 02:31:24 10° SSE 02:32:06 10° SE 02:32:47 10° SE visible
21 May - 04:06:18 10° SW 04:09:37 42° SSE 04:13:04 10° E visible
21 May - 05:44:11 10° W 05:47:46 87° N 05:51:30 10° E daylight
21 May - 07:22:27 10° W 07:26:06 77° SSW 07:29:54 10° ESE daylight
21 May - 09:00:52 10° W 09:04:06 28° SSW 09:07:27 10° SSE daylight
22 May - 03:38:35 10° SW 03:41:52 40° SSE 03:45:16 10° E visible
22 May - 05:16:26 10° W 05:20:00 89° N 05:23:42 10° E daylight
22 May - 06:54:41 10° W 06:58:19 80° SSW 07:02:06 10° ESE daylight
22 May - 08:33:05 10° W 08:36:21 29° SSW 08:39:43 10° SSE daylight
23 May - 03:10:52 10° SW 03:14:07 38° SSE 03:17:28 10° E visible
23 May - 04:48:41 10° W 04:52:13 90° N 04:55:53 10° E daylight
23 May - 06:26:55 10° W 06:30:33 82° S 06:34:17 10° ESE daylight
23 May - 08:05:18 10° W 08:08:35 31° SSW 08:11:58 10° SSE daylight
24 May - 02:43:10 10° SW 02:46:21 35° SSE 02:49:38 10° E visible
24 May - 04:20:54 10° W 04:24:26 89° S 04:28:04 10° E daylight
24 May - 05:59:09 10° W 06:02:44 84° SSW 06:06:29 10° ESE daylight
24 May - 07:37:30 10° W 07:40:49 32° SSW 07:44:14 10° SE daylight
